#timestamp,LO_Frequency,Hit,StdDev 
1618610415.4,286046999.8,N
1618610435.2,286047000.4,N
1618610455.1,286047000.6,N
1618610456.0,286047000.6,N
1618610475.8,286047001.3,N
1618610495.7,286047003.8,Y
1618610515.5,286047001.5,P
1618610535.3,286047001.3,N
1618610555.2,286047003.2,P
1618610575.0,286047001.5,N
1618610575.9,286047001.5,N
1618610595.8,286047001.3,N
1618610615.6,286047001.5,N
1618610635.4,286047002.0,N
1618610655.3,286047001.1,N
1618610675.1,286047000.1,N
1618610695.8,286047002.3,Y
1618610715.7,286047000.9,P
1618610735.5,286046998.6,P
1618610755.4,286047000.6,N
1618610775.2,286046998.5,N
1618610795.0,286046999.5,N
1618610795.9,286046999.5,N
1618610815.8,286046999.5,N
1618610835.6,286046998.9,N
1618610855.5,286046998.3,N
1618610875.3,286046997.4,N
1618610895.1,286046995.0,Y
1618610915.9,286046995.2,P
1618610935.7,286046995.6,N
1618610955.5,286046997.5,N
1618610975.4,286046997.5,N
1618610995.2,286046995.7,N
1618611015.1,286046997.6,N
1618611016.0,286046997.6,N
1618611035.8,286046999.6,N
1618611055.6,286046999.5,N
1618611075.5,286047001.0,N
1618611095.3,286047001.7,N
1618611115.1,286046998.2,N
1618611135.9,286047001.1,N
1618611155.7,286047002.8,N
1618611175.6,286047001.0,N
1618611195.4,286047000.3,N
1618611215.2,286047001.6,N
1618611235.1,286047001.4,N
1618611236.0,286047001.4,N
1618611255.8,286047004.1,N
1618611275.6,286047003.2,N
1618611295.5,286047002.0,N
1618611315.3,286047002.8,N
1618611335.2,286047002.0,N
1618611355.9,286046999.7,N
1618611375.7,286047001.0,N
1618611395.6,286047000.5,N
1618611415.4,286047002.5,N
1618611435.2,286047000.2,N
1618611455.1,286046999.7,N
1618611456.0,286046999.7,N
1618611475.8,286047002.8,N
1618611495.7,286046998.5,N
1618611515.5,286046998.8,N
1618611535.3,286046998.8,N
1618611555.2,286046996.5,N
1618611575.9,286046999.1,N
1618611595.7,286046996.8,N
1618611615.6,286046998.2,N
1618611635.4,286046998.8,N
1618611655.2,286046998.8,N
1618611675.1,286046998.2,N
1618611676.0,286046998.2,N
1618611695.8,286046998.7,N
1618611715.7,286046996.6,N
1618611735.5,286047000.7,N
1618611755.3,286047000.2,N
1618611775.2,286047002.6,N
1618611795.0,286046999.8,N
1618611795.9,286046999.8,N
1618611815.8,286047004.4,N
1618611835.6,286047002.0,N
1618611855.4,286046999.8,N
1618611875.3,286047000.6,N
1618611895.1,286047002.3,N
1618611896.0,286047002.3,N
1618611915.8,286047002.1,N
1618611935.7,286046998.4,N
1618611955.5,286046998.4,N
1618611975.3,286047001.2,N
1618611995.2,286046999.2,N
1618612015.0,286046996.8,N
1618612015.9,286046996.8,N
1618612035.8,286046999.6,N
1618612055.6,286046997.0,N
1618612075.4,286047001.1,N
1618612095.3,286047000.0,N
1618612115.1,286046998.1,N
1618612135.8,286047001.1,N
1618612155.7,286047000.8,N
1618612175.5,286047002.7,N
1618612195.4,286047001.6,N
1618612215.2,286047002.1,N
1618612235.0,286046998.3,N
1618612235.9,286046998.3,N
1618612255.8,286046999.9,N
1618612275.6,286047002.6,N
1618612295.4,286047000.2,N
1618612315.3,286047001.5,N
1618612335.1,286047003.8,N
1618612355.9,286046999.8,N
1618612375.7,286047001.2,N
1618612395.5,286047000.9,N
1618612415.4,286047000.0,N
1618612435.2,286046999.7,N
1618612455.0,286047000.4,N
1618612455.9,286047000.4,N
1618612475.8,286047000.5,N
1618612495.6,286047002.0,N
1618612515.5,286046999.8,N
1618612535.3,286047000.2,N
1618612555.1,286046999.8,N
1618612575.9,286047000.6,N
1618612595.7,286046998.9,N
1618612615.5,286047000.8,N
1618612635.4,286047002.5,N
1618612655.2,286047001.6,N
1618612705.1,286047001.5,E
1618612715.0,286047001.8,N
1618612715.9,286047001.8,P
1618612735.7,286047002.3,P
1618612755.6,286047002.4,Y
1618612775.4,286046999.4,P
1618612795.3,286046998.5,N
1618612815.1,286046999.1,N
1618612816.0,286046999.1,N
1618612835.8,286046997.7,N
1618612855.7,286046997.8,N
1618612875.5,286046995.0,Y
1618612895.3,286046997.2,P
1618612915.2,286046997.9,N
1618612935.0,286046998.0,N
1618612935.9,286046998.0,Y
1618612955.8,286046997.4,P
1618612975.6,286046996.5,P
1618612995.4,286046999.7,N
1618613015.3,286047001.6,N
1618613035.1,286047002.8,N
1618613055.9,286047000.3,N
1618613075.7,286047001.2,N
1618613095.5,286047000.8,N
1618613115.4,286047001.8,N
1618613135.2,286047000.2,N
1618613155.0,286046998.6,N
1618613155.9,286046998.6,N
1618613175.8,286046999.0,N
1618613195.6,286046998.9,N
1618613215.4,286046997.0,N
1618613235.3,286046999.3,N
1618613255.1,286046999.2,N
1618613275.9,286047000.7,N
1618613295.7,286046999.9,N
1618613315.5,286046999.7,N
1618613335.4,286046999.8,N
1618613355.2,286046999.7,N
1618613375.0,286047000.8,N
1618613376.0,286047000.8,N
1618613395.8,286047000.8,N
1618613415.6,286047000.1,N
1618613435.5,286046999.8,N
1618613455.3,286047001.8,N
1618613475.1,286047001.7,N
1618613495.9,286047001.8,N
1618613515.7,286047000.3,N
1618613535.6,286047000.9,N
1618613555.4,286047001.2,N
1618613575.2,286047001.2,N
1618613595.1,286046998.7,N
1618613596.0,286046998.7,N
1618613615.8,286046997.5,N
1618613635.6,286046996.6,N
1618613655.5,286046997.0,N
1618613675.3,286046999.1,N
1618613695.2,286046999.5,N
1618613715.0,286046999.4,N
1618613715.9,286046999.4,N
1618613735.7,286046996.9,N
1618613755.6,286046998.2,N
1618613775.4,286046996.9,N
1618613795.3,286046998.7,N
1618613815.1,286047000.9,N
1618613816.0,286047000.9,N
1618613835.8,286047001.6,N
1618613855.7,286047002.8,N
1618613875.5,286046999.7,N
1618613895.3,286046999.9,N
1618613915.2,286047002.8,N
1618613935.0,286046999.9,N
1618613935.9,286046999.9,N
1618613955.8,286046998.1,N
1618613975.6,286046998.6,N
1618613995.4,286046997.9,N
